Theta_e
319 320 321 325 326 324 326 328 331 336 340 342 344 343 345 349 354 355 353 350 349 350 349 351 349 348 345 342 341 339 339 338 335 335 336 336 335 333 332 332 334 333 331
318 318 319 322 326 327 326 327 329 334 340 344 344 344 345 350 353 353 352 347 350 350 351 349 348 346 344 343 340 339 337 337 336 336 336 335 333 333 333 332 331 333 333
318 318 318 320 324 329 329 328 330 332 336 339 342 345 345 349 352 351 349 348 350 350 350 348 345 344 344 342 340 338 337 337 336 336 336 333 332 331 332 332 332 332 332
317 317 319 320 324 327 330 331 330 330 334 337 342 345 347 348 349 349 349 349 349 348 348 346 344 343 343 340 340 339 337 336 335 335 334 333 331 332 331 331 331 329 330
317 318 319 320 322 326 328 331 331 331 334 336 340 345 346 348 347 349 349 349 349 347 346 344 344 343 341 340 339 337 336 336 335 334 334 333 332 331 331 330 330 330 330
316 317 318 319 321 324 328 331 333 333 335 337 339 344 346 346 346 348 350 349 348 345 344 343 342 340 339 338 337 335 337 337 336 332 334 333 331 330 330 329 330 330 330
315 316 318 318 320 323 326 329 330 335 338 342 342 345 346 347 346 347 347 347 345 344 343 342 340 339 338 337 335 333 333 333 333 334 334 332 332 331 330 331 330 330 330
315 316 317 318 320 323 325 329 331 336 341 344 345 347 348 349 346 347 345 345 344 342 340 338 337 337 337 335 335 333 333 331 329 331 332 331 332 330 331 330 330 328 330
314 316 317 318 320 323 325 331 333 337 340 345 347 348 347 343 345 344 342 341 339 339 338 337 337 336 335 334 335 333 332 331 328 327 328 330 331 330 331 329 329 329 330
314 316 317 318 321 324 326 332 334 337 342 344 346 347 347 340 341 341 339 338 338 337 336 335 334 334 334 332 333 332 331 330 328 329 328 328 327 327 327 330 328 328 329
315 317 318 319 321 324 328 332 337 338 342 344 345 346 343 339 338 333 336 335 335 335 334 333 332 332 330 330 331 332 331 329 329 330 330 330 329 328 326 326 326 329 328
316 317 317 319 322 325 329 334 337 340 341 342 341 341 340 336 333 332 334 332 333 332 333 332 330 329 327 327 329 328 326 329 330 330 329 329 329 328 328 327 329 330 328
317 318 318 320 323 327 332 335 338 338 339 339 340 338 336 333 331 332 331 332 331 332 332 332 328 327 326 326 327 325 326 328 328 328 329 329 328 329 329 329 329 330 329
318 319 320 321 326 330 333 336 337 338 339 339 338 336 334 332 329 330 330 330 331 330 330 327 325 326 328 326 326 326 326 328 329 327 326 328 328 329 328 328 328 327 327
319 320 323 327 329 334 334 337 338 339 339 338 336 333 333 331 330 330 330 330 331 330 328 326 327 329 329 327 327 328 328 328 329 329 327 326 326 326 327 327 327 328 327
323 325 327 331 331 325 328 321 334 333 333 333 332 332 331 330 329 328 329 330 330 328 328 329 330 329 327 327 328 327 327 326 327 327 327 327 326 325 326 327 327 327 327
320 325 331 331 332 332 331 328 327 325 331 331 331 330 330 328 328 328 328 328 328 327 329 329 329 329 328 328 327 326 327 327 327 327 326 326 324 326 326 326 326 326 326
322 331 332 332 332 332 332 331 331 331 330 326 327 328 327 327 327 327 327 326 326 328 329 329 329 328 328 328 327 327 327 326 326 326 326 326 326 326 325 326 326 327 326
330 332 333 332 332 331 331 331 332 331 329 323 318 323 325 325 325 325 325 327 328 329 329 329 328 327 327 327 327 326 326 326 326 326 325 326 325 325 326 326 326 325 325
332 332 332 332 330 330 331 330 330 329 327 326 325 319 321 323 322 325 327 327 328 328 328 328 328 328 328 327 326 326 326 325 325 325 326 326 325 325 325 326 325 325 325
332 331 332 332 331 331 331 331 329 329 328 326 323 323 324 325 325 326 327 327 327 327 327 326 326 327 326 326 326 325 324 324 325 325 324 325 326 326 325 325 325 326 326
332 331 332 331 331 331 330 329 329 328 326 324 322 323 324 325 326 325 326 324 324 324 325 326 326 327 327 327 324 324 325 326 326 326 326 326 326 326 326 326 324 326 324
330 330 331 331 330 329 329 328 327 325 322 322 322 321 321 319 320 321 323 322 323 323 323 323 324 324 324 325 325 326 326 326 327 327 326 326 325 326 327 327 326 325 320
332 331 330 328 328 327 327 326 323 323 322 320 317 314 313 313 314 315 315 317 317 318 320 320 321 322 320 321 320 319 321 325 325 325 326 325 323 321 320 318 316 313 309
330 329 328 327 327 326 324 324 322 321 317 316 311 309 309 309 309 309 310 312 310 308 309 312 311 309 309 309 314 319 320 319 318 318 315 320 318 315 309 306 304 303 302
329 328 326 325 325 325 323 321 319 315 312 310 307 306 306 307 307 305 303 301 301 301 301 301 300 307 311 313 313 313 313 312 312 312 310 309 309 308 305 303 302 301 299
Wind_Speed
20 18 20 20 20 21 21 22 23 25 25 25 25 27 28 27 27 28 26 24 24 23 21 22 21 17 15 16 18 14 14 19 7 5 7 6 4 4 8 7 6 6 7
22 23 21 21 22 22 22 23 25 25 24 25 27 27 27 26 28 28 27 25 24 23 23 19 20 18 18 14 14 16 16 8 15 5 5 5 4 6 5 6 7 6 7
23 25 23 22 22 23 24 24 24 25 26 26 25 26 28 28 28 29 27 24 23 23 21 20 20 18 16 17 17 12 12 15 8 5 6 4 3 6 3 2 4 4 8
26 27 25 22 23 24 25 24 26 25 27 26 27 27 28 28 29 28 26 23 21 21 19 19 18 18 17 16 13 14 12 7 7 8 10 9 8 4 4 4 5 6 6
27 28 26 25 26 26 26 27 26 26 28 28 28 28 27 27 28 27 25 23 20 19 17 18 16 14 15 15 13 14 12 12 11 12 11 10 9 7 9 8 9 9 6
25 30 29 28 26 27 26 27 26 27 27 27 28 28 27 28 29 29 24 22 21 19 16 14 13 15 15 15 15 6 11 11 12 11 11 10 10 9 10 9 11 11 5
28 31 30 29 28 30 29 29 28 27 26 26 28 27 27 28 25 31 27 21 19 17 16 15 16 15 14 12 15 13 11 12 10 9 11 12 10 12 12 11 9 10 4
31 32 31 30 29 31 27 30 25 26 25 26 28 26 26 23 31 32 27 19 18 17 16 14 13 9 13 14 13 13 12 9 9 8 8 9 10 13 14 14 13 6 8
35 33 30 27 28 30 28 31 25 26 25 27 28 27 25 23 35 34 28 21 18 16 13 12 12 11 11 14 14 14 12 8 10 9 9 9 12 13 13 14 13 12 7
32 36 30 27 28 28 30 30 26 27 26 28 29 28 25 27 33 33 25 20 18 15 11 7 11 9 12 14 13 12 12 12 10 9 7 8 8 15 14 12 14 13 11
30 31 27 26 28 30 31 29 28 26 24 26 26 25 25 29 36 33 20 16 17 15 13 10 10 10 10 15 10 9 11 13 12 11 12 11 12 12 14 14 15 9 10
31 29 28 28 29 28 30 27 29 25 25 25 24 23 25 25 32 28 17 6 17 12 14 9 13 14 13 15 11 13 13 13 10 11 12 13 13 13 12 12 9 7 5
31 26 26 29 31 31 26 28 24 27 26 25 26 23 25 23 24 21 13 15 16 13 15 13 15 15 14 16 13 13 14 12 11 11 11 9 9 10 10 9 8 4 2
27 27 28 27 30 27 29 27 30 29 28 24 24 25 25 24 21 18 17 17 15 20 18 18 20 16 12 15 14 13 14 12 11 13 12 10 8 8 10 9 10 10 8
28 30 28 24 29 26 26 31 32 32 30 28 28 28 27 23 24 24 22 21 19 19 19 18 17 15 14 15 14 11 13 12 12 12 16 12 10 9 8 9 9 9 11
26 23 21 21 23 24 23 23 25 25 29 25 27 27 24 25 30 26 23 21 22 23 20 18 17 17 15 13 11 9 7 7 9 11 10 10 11 11 10 9 9 9 8
10 10 24 27 27 26 26 25 19 31 28 23 22 24 25 34 31 25 22 22 20 22 15 14 15 15 16 13 11 9 8 7 6 10 9 11 12 12 11 9 9 8 10
8 23 26 26 28 28 29 27 26 24 20 20 26 27 27 28 28 23 21 21 20 11 14 15 14 14 13 12 11 8 7 7 5 5 5 9 9 8 9 8 8 5 3
22 23 25 29 28 30 28 27 25 25 23 21 22 27 26 25 23 23 25 19 18 12 13 14 15 13 12 10 10 9 8 7 6 7 6 6 5 5 5 6 8 7 5
20 30 30 28 30 28 24 24 23 25 25 25 23 18 26 28 20 19 14 15 12 12 14 14 15 14 12 10 8 9 8 8 6 6 7 7 7 6 5 5 7 8 8
26 26 33 29 25 26 25 24 25 25 24 22 22 22 22 21 19 16 14 13 12 12 12 14 13 12 10 9 8 8 7 8 9 8 7 7 7 7 7 5 6 8 4
28 22 25 30 26 25 24 23 21 23 22 22 19 23 18 16 15 13 15 15 16 14 11 12 12 11 9 8 9 9 7 6 6 6 5 6 6 6 6 7 8 6 5
26 21 23 24 23 27 25 23 23 23 22 23 23 18 18 17 18 17 20 22 21 16 13 12 12 12 10 10 10 11 9 6 4 4 3 7 3 3 4 2 3 6 11
25 24 22 22 22 22 22 22 23 24 25 23 19 18 18 22 26 27 24 21 18 16 14 14 15 13 12 11 11 9 8 11 10 12 11 12 10 10 11 12 11 12 11
21 24 22 23 22 23 24 24 25 24 22 21 20 23 23 23 22 24 20 19 18 18 17 15 14 14 15 15 16 17 13 11 13 12 12 11 13 14 17 18 17 16 15
21 23 22 24 24 25 25 23 23 23 22 22 22 22 23 25 25 22 22 20 21 23 22 19 19 23 23 22 20 17 17 19 18 17 15 15 15 14 15 15 14 14 14
Wind_Direction
275 277 283 286 279 268 261 261 262 260 257 252 243 238 230 224 219 212 211 208 203 208 212 198 206 223 216 214 228 231 236 245 270 141 159 161 196 240 251 243 237 220 216
267 271 272 278 280 271 261 257 259 259 253 244 239 232 226 222 213 209 205 209 201 207 206 211 212 211 213 218 216 224 248 237 253 207 187 194 216 230 232 233 232 227 209
269 271 268 269 271 271 261 258 256 258 256 250 241 233 224 218 209 206 205 210 200 209 208 212 215 203 203 213 217 216 230 236 236 213 210 190 199 204 190 214 204 159 169
270 266 266 268 267 267 270 260 253 251 251 246 238 233 224 215 208 206 204 205 202 208 209 210 212 209 205 215 210 224 254 227 221 221 187 186 201 189 189 191 150 138 123
263 263 260 264 265 263 263 262 253 249 248 241 235 228 221 215 207 201 200 197 197 205 203 210 213 212 209 216 214 222 227 211 215 217 193 188 192 191 197 187 160 148 133
266 268 262 261 266 261 260 257 256 246 246 239 236 224 216 212 207 197 195 190 195 201 195 200 200 198 205 210 217 206 203 215 226 219 217 214 187 198 196 195 174 161 166
260 263 261 260 262 258 254 253 250 241 239 235 233 221 213 208 198 190 187 186 190 183 190 196 199 197 202 211 217 214 211 217 221 219 217 213 200 201 190 189 181 190 217
262 260 258 258 261 253 252 259 249 245 230 228 225 215 207 189 181 176 171 174 183 184 189 194 205 197 189 209 198 207 210 205 208 219 222 229 211 199 193 191 183 165 142
272 262 255 261 262 263 253 257 243 244 225 218 214 202 188 175 173 171 166 168 177 182 187 199 201 216 211 210 196 206 192 178 202 215 222 211 185 183 182 162 165 161 163
252 252 251 250 257 256 257 261 245 232 217 210 205 192 170 162 167 167 165 176 168 183 180 146 179 210 193 207 204 189 188 187 179 173 157 158 162 171 176 186 178 185 194
253 255 254 253 256 257 253 248 239 213 206 202 185 157 158 164 164 165 172 179 174 180 177 190 184 183 180 176 179 180 177 168 172 176 164 155 157 166 183 186 183 225 209
252 249 252 249 258 257 242 237 203 195 192 173 133 139 147 156 165 170 180 209 157 186 161 163 160 173 171 173 164 170 163 155 158 158 166 162 167 175 181 188 199 228 245
250 249 244 253 253 253 232 203 194 184 160 146 149 143 147 153 156 164 159 149 149 142 148 152 153 155 153 163 168 164 162 164 160 170 169 169 181 186 183 189 194 200 183
249 246 245 247 248 231 206 186 168 155 152 149 147 153 150 150 145 151 151 146 146 139 136 140 143 140 147 147 152 169 177 183 177 180 182 189 179 175 182 199 204 207 219
240 243 239 238 230 188 170 169 162 158 157 156 158 155 149 151 162 166 164 162 155 145 137 141 149 151 147 152 161 176 175 172 181 176 173 172 173 180 204 207 213 210 209
234 229 222 195 142 125 126 90 121 144 146 155 149 151 155 157 154 158 160 157 154 153 155 163 160 159 154 162 171 167 172 169 168 177 183 186 184 191 199 203 206 216 221
187 246 155 141 136 127 119 118 106 99 133 135 146 136 132 142 148 151 153 152 159 161 168 169 158 166 162 173 159 171 167 162 163 175 184 180 186 206 186 199 206 214 227
247 142 134 132 128 128 129 125 127 123 117 97 114 129 140 146 150 152 152 153 156 181 173 163 164 164 162 164 159 161 142 153 169 169 175 175 184 179 194 204 223 207 242
164 132 129 126 127 127 129 135 132 131 125 117 112 122 134 138 143 148 150 158 170 167 165 166 158 165 167 165 152 154 159 157 159 167 176 186 180 195 205 212 205 209 213
146 132 126 125 127 127 147 136 131 127 133 135 134 130 133 132 134 150 161 166 156 159 157 161 166 172 162 159 159 158 148 156 171 182 181 185 187 202 196 204 212 218 226
119 129 135 139 145 152 139 127 135 138 132 135 137 140 141 142 151 158 148 159 157 144 140 160 160 164 140 144 154 149 161 191 194 189 193 196 201 207 213 235 253 262 243
127 149 138 141 144 119 126 136 132 131 126 124 127 143 144 128 127 124 122 132 138 128 109 125 112 109 130 131 135 153 172 175 178 181 182 196 209 209 216 228 240 244 215
141 132 111 117 118 119 117 131 130 121 125 124 126 122 116 116 116 116 118 107 119 110 103 102 109 100 94 97 87 80 90 73 89 151 161 171 179 233 245 35 68 69 59
98 109 112 120 122 125 127 119 119 127 125 123 120 118 118 117 117 106 104 101 99 95 98 88 82 92 92 82 79 68 73 67 66 66 78 95 87 76 74 80 78 78 74
123 125 127 124 122 118 116 125 128 123 115 120 118 110 114 110 114 104 102 103 102 94 89 87 87 82 85 88 95 96 98 95 95 92 88 98 100 98 93 91 88 81 77
126 129 128 123 125 125 123 123 119 120 119 114 111 111 114 106 108 105 111 106 103 101 98 92 92 96 97 96 98 103 104 102 99 97 90 93 91 92 87 84 80 76 69